Weather History for Roanoke, VA

Change the Weather History Date:

Monday, December 3, 2012

  Actual Average Record
Temperature  
Mean Temperature 62 °F 42 °F  
Max Temperature 73 °F 51 °F 73 °F (2012)
Min Temperature 51 °F 33 °F 12 °F (1946)
Degree Days  
Heating Degree Days 3 23  
Month to date heating degree days 35 68  
Since 1 July heating degree days 922 872  
Cooling Degree Days 0 0  
Month to date cooling degree days 0 0  
Year to date cooling degree days 1423 1208  
Growing Degree Days 14 (Base 50)    
Moisture  
Dew Point 49 °F    
Average Humidity 66    
Maximum Humidity 83    
Minimum Humidity 49    
Precipitation  
Precipitation 0.00 in 0.10 in 3.40 in (1948)
Month to date precipitation T 0.31  
Year to date precipitation 30.33 38.62  
Snow  
Snow 0.00 in - - ()
Month to date snowfall 0.0  
Since 1 July snowfall T  
Snow Depth 0.00 in    
Sea Level Pressure  
Sea Level Pressure 30.25 in    
Wind  
Wind Speed 5 mph (West)    
Max Wind Speed 12 mph    
Max Gust Speed 16 mph    
Visibility 10 miles    
Events      
T = Trace of Precipitation, MM = Missing Value Source: NWS Daily Summary

Daily Weather History Graph

Daily Weather History Graph

Search for Another Location

Airport:

Trip Planner

Search our weather history database for the weather conditions in past years. The results will help you decide how hot, cold, wet, or windy it might be!

Date:

Astronomy

Dec. 03, 2012 Rise Set
Actual Time 7:17 AM EST 5:02 PM EST
Civil Twilight 6:48 AM EST 5:30 PM EST
Nautical Twilight 6:16 AM EST 6:03 PM EST
Astronomical Twilight 5:44 AM EST 6:34 PM EST
Moon 9:43 PM EST (12/3) 10:42 AM EST (12/3)
Length of Visible Light 10h 42m
Length of Day
9h 44m
Waning Gibbous, 78% of the Moon is Illuminated
Dec 3
Waning Gibbous
Dec 6
Last Quarter
Dec 13
New
Dec 20
First Quarter
Dec 28
Full

Hourly Weather History & Observations

Time (EST) Temp. Dew Point Humidity Pressure Visibility Wind Dir Wind Speed Gust Speed Precip Events Conditions
12:54 AM 60.1 °F 46.0 °F 60% 30.23 in 10.0 mi West 5.8 mph - N/A   Scattered Clouds
1:54 AM 60.1 °F 46.0 °F 60% 30.24 in 10.0 mi West 8.1 mph - N/A   Overcast
2:54 AM 60.1 °F 46.9 °F 62% 30.24 in 10.0 mi NNW 3.5 mph - N/A   Overcast
3:54 AM 57.9 °F 46.9 °F 67% 30.24 in 10.0 mi West 8.1 mph - N/A   Mostly Cloudy
4:54 AM 59.0 °F 46.9 °F 64% 30.24 in 10.0 mi West 9.2 mph - N/A   Scattered Clouds
5:54 AM 59.0 °F 46.9 °F 64% 30.24 in 10.0 mi West 10.4 mph - N/A   Clear
6:54 AM 55.0 °F 46.9 °F 74% 30.26 in 10.0 mi NW 3.5 mph - N/A   Scattered Clouds
7:54 AM 57.0 °F 48.0 °F 72% 30.27 in 10.0 mi NW 6.9 mph - N/A   Partly Cloudy
8:54 AM 61.0 °F 48.9 °F 64% 30.28 in 10.0 mi NE 4.6 mph - N/A   Scattered Clouds
9:54 AM 64.9 °F 48.9 °F 56% 30.28 in 10.0 mi WSW 8.1 mph - N/A   Partly Cloudy
10:54 AM 66.0 °F 48.9 °F 54% 30.28 in 10.0 mi West 9.2 mph - N/A   Scattered Clouds
11:54 AM 66.9 °F 50.0 °F 54% 30.26 in 10.0 mi WSW 11.5 mph - N/A   Mostly Cloudy
12:54 PM 69.1 °F 50.0 °F 51% 30.23 in 10.0 mi SW 8.1 mph - N/A   Mostly Cloudy
1:54 PM 71.1 °F 51.1 °F 49% 30.22 in 10.0 mi WSW 6.9 mph - N/A   Overcast
2:54 PM 72.0 °F 51.1 °F 48% 30.21 in 10.0 mi Calm Calm - N/A   Mostly Cloudy
3:54 PM 69.1 °F 51.1 °F 53% 30.21 in 10.0 mi ESE 11.5 mph - N/A   Mostly Cloudy
4:54 PM 66.0 °F 51.1 °F 59% 30.23 in 10.0 mi ESE 6.9 mph - N/A   Mostly Cloudy
5:54 PM 64.0 °F 51.1 °F 63% 30.24 in 10.0 mi SE 5.8 mph - N/A   Mostly Cloudy
6:54 PM 62.1 °F 51.1 °F 67% 30.25 in 10.0 mi Calm Calm - N/A   Scattered Clouds
7:54 PM 62.1 °F 51.1 °F 67% 30.26 in 10.0 mi Calm Calm - N/A   Scattered Clouds
8:54 PM 57.9 °F 50.0 °F 75% 30.26 in 10.0 mi Calm Calm - N/A   Clear
9:54 PM 54.0 °F 48.0 °F 80% 30.26 in 10.0 mi Calm Calm - N/A   Clear
10:54 PM 55.0 °F 48.9 °F 80% 30.26 in 10.0 mi Calm Calm - N/A   Partly Cloudy
11:54 PM 52.0 °F 48.0 °F 86% 30.26 in 10.0 mi Calm Calm - N/A   Clear